Hourly Weather Ballycastle

Today, 18 January, Monday

Time Temperature Precipitation Wind Pressure Humidity
00:00 +3°C° 0 mm 10 mps 760 mmHg 83%
01:00 +3°C° 0.1 mm 10 mps 759 mmHg 83%
02:00 +3°C° 0.1 mm 10 mps 759 mmHg 84%
03:00 +3°C° 0.1 mm 9 mps 759 mmHg 85%
04:00 +3°C° 0.4 mm 9 mps 758 mmHg 85%
05:00 +4°C° 0.4 mm 8 mps 758 mmHg 85%
06:00 +2°C° 0.4 mm 8 mps 758 mmHg 86%
07:00 +2°C° 0.3 mm 8 mps 758 mmHg 86%
08:00 +3°C° 0.3 mm 7 mps 757 mmHg 86%
09:00 +3°C° 0.3 mm 7 mps 757 mmHg 87%
10:00 +3°C° 0.2 mm 7 mps 757 mmHg 86%
11:00 +4°C° 0.2 mm 7 mps 757 mmHg 85%
12:00 +4°C° 0.2 mm 7 mps 756 mmHg 84%
13:00 +4°C° 0 mm 7 mps 755 mmHg 84%
14:00 +4°C° 0 mm 7 mps 755 mmHg 84%
15:00 +4°C° 0 mm 6 mps 754 mmHg 85%
16:00 +4°C° 0.1 mm 6 mps 753 mmHg 87%
17:00 +5°C° 0.1 mm 5 mps 752 mmHg 90%
18:00 +3°C° 0.1 mm 5 mps 752 mmHg 93%
19:00 +4°C° 0.3 mm 4 mps 751 mmHg 94%
20:00 +4°C° 0.3 mm 3 mps 750 mmHg 94%
21:00 +5°C° 0.3 mm 2 mps 750 mmHg 95%
22:00 +5°C° 0.4 mm 2 mps 749 mmHg 95%
23:00 +5°C° 0.4 mm 2 mps 748 mmHg 95%

Tomorrow, 19 January, Tuesday

Time Temperature Precipitation Wind Pressure Humidity
00:00 +6°C° 0.4 mm 1 mps 748 mmHg 95%
01:00 +5°C° 0.2 mm 2 mps 747 mmHg 94%
02:00 +5°C° 0.2 mm 2 mps 746 mmHg 94%
03:00 +5°C° 0.2 mm 2 mps 745 mmHg 93%
04:00 +5°C° 0 mm 2 mps 745 mmHg 91%
05:00 +5°C° 0 mm 2 mps 745 mmHg 89%
06:00 +5°C° 0 mm 2 mps 745 mmHg 87%
07:00 +6°C° 0 mm 1 mps 744 mmHg 86%
08:00 +6°C° 0 mm 1 mps 744 mmHg 85%
09:00 +4°C° 0 mm 0 mps 743 mmHg 84%
10:00 +6°C° 0.1 mm 1 mps 743 mmHg 84%
11:00 +6°C° 0.1 mm 1 mps 742 mmHg 84%
12:00 +5°C° 0.1 mm 2 mps 742 mmHg 83%
13:00 +5°C° 0.4 mm 2 mps 741 mmHg 86%
14:00 +5°C° 0.4 mm 2 mps 740 mmHg 89%
15:00 +4°C° 0.4 mm 2 mps 739 mmHg 92%
16:00 +3°C° 0.5 mm 3 mps 739 mmHg 93%
17:00 +3°C° 0.5 mm 3 mps 738 mmHg 94%
18:00 +3°C° 0.5 mm 3 mps 738 mmHg 95%
19:00 +3°C° 0.6 mm 3 mps 737 mmHg 96%
20:00 +3°C° 0.6 mm 3 mps 737 mmHg 96%
21:00 +3°C° 0.6 mm 3 mps 736 mmHg 96%
22:00 +3°C° 0.2 mm 3 mps 736 mmHg 93%
23:00 +3°C° 0.2 mm 3 mps 736 mmHg 90%

Day after tomorrow, 20 January, Wednesday

Time Temperature Precipitation Wind Pressure Humidity
00:00 +3°C° 0.2 mm 3 mps 736 mmHg 88%
01:00 +2°C° 0 mm 3 mps 736 mmHg 86%
02:00 +2°C° 0 mm 3 mps 736 mmHg 84%
03:00 +3°C° 0 mm 2 mps 736 mmHg 82%
04:00 +2°C° 0 mm 2 mps 736 mmHg 82%
05:00 +2°C° 0 mm 2 mps 735 mmHg 82%
06:00 +2°C° 0 mm 2 mps 735 mmHg 82%
07:00 +2°C° 0 mm 2 mps 735 mmHg 83%
08:00 +2°C° 0 mm 2 mps 735 mmHg 83%
09:00 +2°C° 0 mm 2 mps 735 mmHg 84%
10:00 +3°C° 0 mm 2 mps 734 mmHg 83%
11:00 +2°C° 0 mm 3 mps 734 mmHg 81%
12:00 +3°C° 0 mm 3 mps 734 mmHg 80%
13:00 +3°C° 0 mm 4 mps 733 mmHg 80%
14:00 +3°C° 0 mm 4 mps 732 mmHg 79%
15:00 +2°C° 0 mm 5 mps 731 mmHg 78%
16:00 +1°C° 0 mm 5 mps 730 mmHg 78%
17:00 +1°C° 0 mm 5 mps 730 mmHg 78%
18:00 +1°C° 0 mm 6 mps 729 mmHg 78%
19:00 +1°C° 0.2 mm 6 mps 728 mmHg 80%
20:00 -1°C° 0.2 mm 6 mps 727 mmHg 82%
21:00 -1°C° 0.2 mm 6 mps 726 mmHg 83%
22:00 0°C° 0.3 mm 7 mps 725 mmHg 84%
23:00 0°C° 0.3 mm 8 mps 724 mmHg 85%

21 January, Thursday

Time Temperature Precipitation Wind Pressure Humidity
00:00 0°C° 0.3 mm 8 mps 723 mmHg 86%
01:00 0°C° 0.3 mm 9 mps 723 mmHg 85%
02:00 +1°C° 0.3 mm 10 mps 722 mmHg 84%
03:00 +1°C° 0.3 mm 11 mps 721 mmHg 83%
04:00 +1°C° 0.5 mm 11 mps 720 mmHg 85%
05:00 +1°C° 0.5 mm 11 mps 720 mmHg 86%
06:00 +1°C° 0.5 mm 10 mps 719 mmHg 87%
07:00 +1°C° 0.2 mm 10 mps 719 mmHg 90%
08:00 +1°C° 0.2 mm 10 mps 719 mmHg 92%
09:00 +1°C° 0.2 mm 10 mps 719 mmHg 95%
10:00 +1°C° 0.3 mm 11 mps 719 mmHg 95%
11:00 +1°C° 0.3 mm 11 mps 719 mmHg 95%
12:00 0°C° 0.3 mm 12 mps 719 mmHg 95%
13:00 0°C° 0.5 mm 12 mps 720 mmHg 95%
14:00 0°C° 0.5 mm 13 mps 720 mmHg 95%
15:00 0°C° 0.5 mm 14 mps 721 mmHg 94%
16:00 0°C° 1 mm 14 mps 721 mmHg 94%
17:00 0°C° 1 mm 14 mps 722 mmHg 94%
18:00 0°C° 1 mm 15 mps 722 mmHg 95%
19:00 0°C° 0.9 mm 15 mps 723 mmHg 93%
20:00 0°C° 0.9 mm 16 mps 724 mmHg 92%
21:00 0°C° 0.9 mm 16 mps 724 mmHg 90%
22:00 0°C° 0.4 mm 16 mps 725 mmHg 90%
23:00 0°C° 0.4 mm 15 mps 726 mmHg 90%

22 January, Friday

Time Temperature Precipitation Wind Pressure Humidity
00:00 0°C° 0.4 mm 15 mps 727 mmHg 90%
01:00 0°C° 0.2 mm 15 mps 728 mmHg 89%
02:00 0°C° 0.2 mm 14 mps 729 mmHg 88%
03:00 0°C° 0.2 mm 14 mps 730 mmHg 86%
04:00 0°C° 0.2 mm 13 mps 730 mmHg 87%
05:00 0°C° 0.2 mm 13 mps 731 mmHg 87%
06:00 0°C° 0.2 mm 13 mps 732 mmHg 88%
07:00 -1°C° 0.1 mm 12 mps 733 mmHg 84%
08:00 -1°C° 0.1 mm 12 mps 734 mmHg 81%
09:00 -1°C° 0.1 mm 11 mps 735 mmHg 78%
10:00 -1°C° 0.1 mm 11 mps 735 mmHg 78%
11:00 -1°C° 0.1 mm 11 mps 736 mmHg 78%
12:00 -1°C° 0.1 mm 11 mps 737 mmHg 78%
13:00 -1°C° 0.2 mm 11 mps 737 mmHg 76%
14:00 0°C° 0.2 mm 10 mps 737 mmHg 75%
15:00 0°C° 0.2 mm 10 mps 738 mmHg 74%
16:00 0°C° 0.1 mm 10 mps 738 mmHg 74%
17:00 -1°C° 0.1 mm 9 mps 738 mmHg 74%
18:00 -1°C° 0.1 mm 9 mps 739 mmHg 74%
19:00 -1°C° 0.2 mm 8 mps 739 mmHg 75%
20:00 -2°C° 0.2 mm 7 mps 739 mmHg 77%
21:00 -2°C° 0.2 mm 6 mps 740 mmHg 78%
22:00 -2°C° 0.3 mm 6 mps 740 mmHg 79%
23:00 -3°C° 0.3 mm 6 mps 740 mmHg 80%

23 January, Saturday

Time Temperature Precipitation Wind Pressure Humidity
00:00 -3°C° 0.3 mm 6 mps 740 mmHg 81%
01:00 -3°C° 0.4 mm 6 mps 741 mmHg 81%
02:00 -3°C° 0.4 mm 6 mps 741 mmHg 80%
03:00 -2°C° 0.4 mm 7 mps 741 mmHg 80%
04:00 -3°C° 0.2 mm 7 mps 741 mmHg 79%
05:00 -3°C° 0.2 mm 7 mps 741 mmHg 79%
06:00 -3°C° 0.2 mm 7 mps 741 mmHg 79%
07:00 -3°C° 0.1 mm 7 mps 741 mmHg 79%
08:00 -3°C° 0.1 mm 6 mps 741 mmHg 80%
09:00 -4°C° 0.1 mm 6 mps 742 mmHg 80%
10:00 -3°C° 0.1 mm 6 mps 742 mmHg 80%
11:00 -2°C° 0.1 mm 7 mps 742 mmHg 80%
12:00 -1°C° 0.1 mm 7 mps 742 mmHg 80%
13:00 -1°C° 0.4 mm 7 mps 741 mmHg 84%
14:00 -1°C° 0.4 mm 7 mps 741 mmHg 87%
15:00 -1°C° 0.4 mm 6 mps 741 mmHg 90%
16:00 -2°C° 0.1 mm 6 mps 740 mmHg 90%
17:00 -3°C° 0.1 mm 6 mps 740 mmHg 89%
18:00 -3°C° 0.1 mm 6 mps 740 mmHg 89%
19:00 -3°C° 0 mm 6 mps 740 mmHg 87%
20:00 -3°C° 0 mm 7 mps 740 mmHg 85%
21:00 -3°C° 0 mm 7 mps 740 mmHg 84%
22:00 -4°C° 0.1 mm 8 mps 740 mmHg 85%
23:00 -4°C° 0.1 mm 8 mps 741 mmHg 86%
Show more